TimeCDT,TemperatureF,Dew PointF,Humidity,Sea Level PressureIn,VisibilityMPH,Wind Direction,Wind SpeedMPH,Gust SpeedMPH,PrecipitationIn,Events,Conditions,WindDirDegrees,DateUTC
12:15 AM,66.2,60.8,83,29.99,10.0,Calm,Calm,-,N/A,,Clear,0,2013-10-06 05:15:00
12:35 AM,66.2,60.8,83,29.99,10.0,Calm,Calm,-,N/A,,Clear,0,2013-10-06 05:35:00
12:55 AM,64.4,60.8,88,29.98,10.0,Calm,Calm,-,N/A,,Clear,0,2013-10-06 05:55:00
1:15 AM,64.4,60.8,88,29.98,10.0,Calm,Calm,-,N/A,,Clear,0,2013-10-06 06:15:00
1:35 AM,64.4,60.8,88,29.98,10.0,Calm,Calm,-,N/A,,Clear,0,2013-10-06 06:35:00
1:55 AM,64.4,60.8,88,29.97,10.0,Calm,Calm,-,N/A,,Partly Cloudy,0,2013-10-06 06:55:00
2:15 AM,64.4,60.8,88,29.97,10.0,Calm,Calm,-,N/A,,Partly Cloudy,0,2013-10-06 07:15:00
2:35 AM,64.4,60.8,88,29.97,10.0,Calm,Calm,-,N/A,,Scattered Clouds,0,2013-10-06 07:35:00
2:55 AM,64.4,60.8,88,29.96,10.0,Calm,Calm,-,N/A,,Overcast,0,2013-10-06 07:55:00
3:15 AM,64.4,60.8,88,29.95,10.0,Calm,Calm,-,N/A,,Overcast,0,2013-10-06 08:15:00
3:35 AM,66.2,62.6,88,29.96,10.0,Calm,Calm,-,N/A,,Overcast,0,2013-10-06 08:35:00
3:55 AM,66.2,62.6,88,29.96,10.0,Calm,Calm,-,N/A,,Overcast,0,2013-10-06 08:55:00
4:15 AM,66.2,62.6,88,29.96,10.0,Calm,Calm,-,N/A,,Overcast,0,2013-10-06 09:15:00
4:35 AM,66.2,62.6,88,29.97,10.0,Calm,Calm,-,N/A,,Overcast,0,2013-10-06 09:35:00
4:55 AM,66.2,62.6,88,29.97,10.0,Calm,Calm,-,N/A,,Overcast,0,2013-10-06 09:55:00
5:15 AM,66.2,62.6,88,29.97,10.0,Calm,Calm,-,N/A,,Overcast,0,2013-10-06 10:15:00
5:35 AM,68.0,62.6,83,29.97,10.0,Calm,Calm,-,N/A,,Overcast,0,2013-10-06 10:35:00
5:55 AM,66.2,62.6,88,29.98,10.0,Calm,Calm,-,N/A,,Overcast,0,2013-10-06 10:55:00
6:15 AM,68.0,62.6,83,29.97,10.0,Calm,Calm,-,N/A,,Overcast,0,2013-10-06 11:15:00
6:35 AM,66.2,62.6,88,29.97,10.0,Calm,Calm,-,N/A,,Mostly Cloudy,0,2013-10-06 11:35:00
6:55 AM,66.2,62.6,88,29.98,8.0,Calm,Calm,-,N/A,,Scattered Clouds,0,2013-10-06 11:55:00
7:15 AM,66.2,62.6,88,29.98,8.0,Calm,Calm,-,N/A,,Mostly Cloudy,0,2013-10-06 12:15:00
7:35 AM,68.0,64.4,88,29.98,8.0,Calm,Calm,-,N/A,,Overcast,0,2013-10-06 12:35:00
7:55 AM,69.8,64.4,83,29.98,10.0,Calm,Calm,-,N/A,,Mostly Cloudy,0,2013-10-06 12:55:00
8:15 AM,69.8,62.6,78,29.98,10.0,Calm,Calm,-,N/A,,Mostly Cloudy,0,2013-10-06 13:15:00
8:35 AM,71.6,64.4,78,29.98,10.0,Calm,Calm,-,N/A,,Overcast,0,2013-10-06 13:35:00
8:55 AM,71.6,62.6,73,29.98,10.0,Calm,Calm,-,N/A,,Overcast,0,2013-10-06 13:55:00
9:15 AM,71.6,62.6,73,29.97,10.0,SE,3.5,-,N/A,,Overcast,130,2013-10-06 14:15:00
9:35 AM,73.4,62.6,69,29.97,10.0,SSE,4.6,-,N/A,,Scattered Clouds,160,2013-10-06 14:35:00
9:55 AM,73.4,64.4,73,29.97,10.0,South,3.5,-,N/A,,Mostly Cloudy,170,2013-10-06 14:55:00
10:15 AM,77.0,64.4,65,29.96,10.0,South,3.5,-,N/A,,Partly Cloudy,170,2013-10-06 15:15:00
10:35 AM,77.0,64.4,65,29.95,10.0,South,5.8,-,N/A,,Clear,170,2013-10-06 15:35:00
10:55 AM,78.8,66.2,65,29.95,10.0,South,6.9,-,N/A,,Clear,180,2013-10-06 15:55:00
11:15 AM,80.6,66.2,61,29.95,10.0,South,5.8,-,N/A,,Scattered Clouds,170,2013-10-06 16:15:00
11:35 AM,80.6,66.2,61,29.94,10.0,South,9.2,-,N/A,,Scattered Clouds,170,2013-10-06 16:35:00
11:55 AM,80.6,66.2,61,29.94,10.0,South,8.1,-,N/A,,Scattered Clouds,170,2013-10-06 16:55:00
12:15 PM,80.6,66.2,61,29.93,10.0,SSW,4.6,-,N/A,,Scattered Clouds,210,2013-10-06 17:15:00
12:35 PM,78.8,66.2,65,29.92,10.0,South,9.2,-,N/A,,Mostly Cloudy,190,2013-10-06 17:35:00
12:55 PM,80.6,66.2,61,29.91,10.0,SSW,4.6,-,N/A,,Scattered Clouds,210,2013-10-06 17:55:00
1:15 PM,80.6,66.2,61,29.90,10.0,SSW,4.6,-,N/A,,Clear,200,2013-10-06 18:15:00
1:35 PM,80.6,66.2,61,29.89,10.0,South,5.8,-,N/A,,Scattered Clouds,190,2013-10-06 18:35:00
1:55 PM,80.6,64.4,58,29.88,10.0,South,6.9,-,N/A,,Partly Cloudy,190,2013-10-06 18:55:00
2:15 PM,78.8,64.4,61,29.87,10.0,South,4.6,-,N/A,,Clear,180,2013-10-06 19:15:00
2:35 PM,78.8,64.4,61,29.85,10.0,SSE,4.6,-,N/A,,Mostly Cloudy,160,2013-10-06 19:35:00
2:55 PM,77.0,66.2,69,29.85,10.0,Calm,Calm,-,N/A,,Overcast,0,2013-10-06 19:55:00
3:15 PM,77.0,66.2,69,29.84,10.0,South,5.8,-,N/A,,Mostly Cloudy,170,2013-10-06 20:15:00
3:35 PM,77.0,66.2,69,29.85,10.0,SSE,9.2,-,N/A,,Mostly Cloudy,160,2013-10-06 20:35:00
3:55 PM,75.2,66.2,73,29.85,10.0,SW,4.6,-,0.01,,Overcast,230,2013-10-06 20:55:00
4:15 PM,73.4,66.2,78,29.84,10.0,Calm,Calm,-,0.01,,Mostly Cloudy,0,2013-10-06 21:15:00
4:35 PM,73.4,68.0,83,29.87,10.0,SSW,3.5,-,0.02,,Overcast,200,2013-10-06 21:35:00
4:55 PM,71.6,66.2,83,29.88,10.0,South,8.1,-,0.05,,Overcast,190,2013-10-06 21:55:00
5:15 PM,71.6,66.2,83,29.87,10.0,SSE,8.1,-,0.05,,Mostly Cloudy,160,2013-10-06 22:15:00
5:35 PM,69.8,66.2,88,29.86,10.0,SSE,9.2,-,0.11,,Overcast,150,2013-10-06 22:35:00
5:55 PM,69.8,64.4,83,29.87,10.0,West,5.8,-,0.14,,Overcast,260,2013-10-06 22:55:00
6:15 PM,69.8,66.2,88,29.87,10.0,SW,5.8,-,0.02,,Mostly Cloudy,230,2013-10-06 23:15:00
6:35 PM,69.8,64.4,83,29.86,10.0,Calm,Calm,-,0.03,,Overcast,0,2013-10-06 23:35:00
6:55 PM,69.8,64.4,83,29.86,10.0,Calm,Calm,-,0.03,,Scattered Clouds,0,2013-10-06 23:55:00
7:15 PM,69.8,64.4,83,29.87,10.0,Calm,Calm,-,N/A,,Mostly Cloudy,0,2013-10-07 00:15:00
7:35 PM,69.8,64.4,83,29.87,10.0,Calm,Calm,-,N/A,,Mostly Cloudy,0,2013-10-07 00:35:00
7:55 PM,69.8,66.2,88,29.87,10.0,West,3.5,-,N/A,,Overcast,270,2013-10-07 00:55:00
8:15 PM,69.8,66.2,88,29.87,10.0,Calm,Calm,-,N/A,,Overcast,0,2013-10-07 01:15:00
8:35 PM,69.8,66.2,88,29.87,10.0,SW,3.5,-,N/A,,Mostly Cloudy,230,2013-10-07 01:35:00
8:55 PM,69.8,64.4,83,29.87,10.0,Calm,Calm,-,N/A,,Overcast,0,2013-10-07 01:55:00
9:15 PM,69.8,66.2,88,29.87,10.0,Calm,Calm,-,N/A,,Overcast,0,2013-10-07 02:15:00
9:35 PM,69.8,66.2,88,29.87,10.0,Calm,Calm,-,N/A,,Overcast,0,2013-10-07 02:35:00
9:55 PM,69.8,66.2,88,29.87,7.0,Calm,Calm,-,0.01,,Overcast,0,2013-10-07 02:55:00
10:15 PM,69.8,66.2,88,29.87,5.0,Calm,Calm,-,0.01,,Mostly Cloudy,0,2013-10-07 03:15:00
10:35 PM,69.8,66.2,88,29.87,5.0,NW,9.2,-,0.01,,Mostly Cloudy,310,2013-10-07 03:35:00
10:55 PM,60.8,55.4,82,29.90,5.0,NW,15.0,23.0,0.10,,Overcast,320,2013-10-07 03:55:00
11:15 PM,59.0,55.4,88,29.90,5.0,NNW,11.5,17.3,0.05,,Overcast,330,2013-10-07 04:15:00
11:35 PM,57.2,53.6,88,29.91,9.0,NW,12.7,18.4,0.12,,Overcast,320,2013-10-07 04:35:00
11:55 PM,57.2,51.8,82,29.91,10.0,NNW,6.9,-,0.12,,Overcast,340,2013-10-07 04:55:00